Regional Weather Roundup
Issued by NWS Midland/Odessa, TX

Skip options and go directly to product.
Home | Oldest Version | Previous Version | Current Version | All | Text Only | Save Text | Print | Product List | Glossary Off

Skip product version selection by date and time.   

161
ASUS44 KMAF 260410
RWRMAF
MIDLAND AREA WEATHER ROUNDUP
NATIONAL WEATHER SERVICE MIDLAND TX
1100 PM CDT THU AUG 25 2016

...IN SOUTHWEST TEXAS AND SOUTHEAST NEW MEXICO...

CITY           SKY/WX    TMP DP  RH WIND       PRES   REMARKS
ALPINE         CLOUDY    66  61  85 CALM      30.26R
ANDREWS        NOT AVBL
ARTESIA        CLOUDY    68  63  83 SE8G14    30.13S
BIG SPRING     CLOUDY    73  62  68 W3        30.13R
CARLSBAD       PTCLDY    66  63  90 E5        30.11R
DRYDEN           N/A     81  63  54 E10       30.05R
FORT STOCKTON  MOCLDY    68  65  90 SE3       30.11S
GUAD PASS      CLOUDY    69  49  48 NE5       30.24R
HOBBS          CLOUDY    66  66 100 E8        30.14S
MARFA          LGT RAIN N/A N/A N/A NE14      30.23R
MIDLAND AIRPK  CLOUDY    71  62  73 CALM      30.14R
MIDLAND INTL   CLOUDY    70  61  73 N6        30.12R
ODESSA         CLOUDY    69  63  81 NE7       30.13R
PECOS          CLOUDY    70  63  77 S6        30.10R
PRESIDIO       NOT AVBL
SEMINOLE       CLOUDY    65  62  89 CALM      30.15S
SNYDER           N/A     75  63  66 NW9       30.11R
WINK           CLOUDY    71  66  84 MISG      30.10R
$$
...OTHER STATIONS IN TEXAS...

CITY           SKY/WX    TMP DP  RH WIND       PRES   REMARKS
ABILENE        CLEAR     77  62  59 SE14      30.08R
AMARILLO       LGT RAIN  62  60  93 SE7       30.19F
AUSTIN         MOCLDY    80  72  76 CALM      30.04R
BROWNSVILLE    CLEAR     82  77  84 SE6       29.99R
CORPUS CHRISTI PTCLDY    82  76  81 SE6       29.99R
DALLAS FTW     MOCLDY    82  72  71 SE8       30.04R
DEL RIO        CLEAR     79  66  64 E8        30.00R
EL PASO        MOCLDY    75  53  46 S7        30.11R
HOUSTON INT    MOCLDY    77  74  90 E6        30.04R
LUBBOCK        LGT RAIN  66  63  90 N8        30.18R
SAN ANGELO     CLEAR     79  59  50 SE10      30.08R
SAN ANTONIO    PTCLDY    80  72  76 SE8       30.05R
WACO           MOCLDY    83  74  74 SE8       30.05R
WICHITA FALLS  NOT AVBL
$$
...OTHER LOCATIONS IN NEW MEXICO...

CITY           SKY/WX    TMP DP  RH WIND       PRES   REMARKS
ALAMAGORDO     PTCLDY    72  48  43 S5        30.12R
ALBUQUERQUE    MOCLDY    72  48  42 E13       30.17R
CANNON AFB     DRIZZLE   63  61  94 E8        30.21F
CLOVIS         CLOUDY    63  55  77 W7        30.22R
HOLLOMAN AFB   NOT AVBL
ROSWELL        CLOUDY    68  60  75 S12       30.12R
RUIDOSO          N/A     59  50  72 CALM      30.31S
SANTA FE       CLEAR     63  46  54 S7        30.24R
TRUTH OR CONSE PTCLDY    75  45  34 VRB3      30.12R
TUCUMCARI      CLOUDY    66  60  81 E10       30.16R
$$

USA.gov is the U.S. government's official web portal to all federal, state and local government web resources and services.